User: anonymous   Login
Location: Gollag?dem
(16.8053°N, 80.8024°E)
Time: 18:09:26
(UTC+00:00)
Language:

Yuri Rocket - Orbit

View from above orbital plane
View from above orbital plane
View from above satellite
View from above satellite

Ground track
Ground track

The orbit data is extracted from the following two-line orbital elements,

1 10793U 78039B   20297.89933412 +.00000104 +00000-0 -40749-5 0  9991
2 10793 028.2334 218.9332 0883677 277.3068 072.7984 13.05409558023961
Epoch (UTC): 23 October 2020 21:35:02
Eccentricity: 0.0883677
inclination: 28.2334°
perigee height: 567 km
apogee height: 1914 km
right ascension of ascending node: 218.9332°
argument of perigee: 277.3068°
revolutions per day: 13.05409558
mean anomaly at epoch: 72.7984°
orbit number at epoch: 2396

The dashed part of the orbit path shows where the satellite is in the earth's shadow,  

DLR